TimeCDT,TemperatureF,Dew PointF,Humidity,Sea Level PressureIn,VisibilityMPH,Wind Direction,Wind SpeedMPH,Gust SpeedMPH,PrecipitationIn,Events,Conditions,WindDirDegrees,DateUTC
12:16 AM,60.8,59.0,94,29.88,10.0,West,3.5,-,N/A,,Light Drizzle,260,2013-07-20 05:16:00
12:24 AM,62.6,59.0,88,29.88,10.0,West,3.5,-,N/A,,Clear,270,2013-07-20 05:24:00
12:58 AM,61.0,56.7,86,29.88,10.0,West,4.6,-,0.00,,Clear,280,2013-07-20 05:58:00
1:58 AM,59.7,56.7,90,29.87,10.0,West,3.5,-,N/A,,Clear,270,2013-07-20 06:58:00
2:58 AM,57.0,55.4,94,29.86,10.0,Calm,Calm,-,N/A,,Clear,0,2013-07-20 07:58:00
3:58 AM,56.1,55.8,99,29.86,10.0,Calm,Calm,-,N/A,,Clear,0,2013-07-20 08:58:00
4:38 AM,55.4,55.4,100,29.86,8.0,ESE,1.2,-,N/A,,Clear,120,2013-07-20 09:38:00
4:48 AM,53.6,53.6,100,29.86,1.8,ESE,2.3,-,N/A,,Clear,120,2013-07-20 09:48:00
4:53 AM,55.4,55.4,100,29.86,1.2,ESE,1.2,-,N/A,,Clear,120,2013-07-20 09:53:00
4:58 AM,55.4,55.4,100,29.86,2.0,SE,2.3,-,N/A,,Clear,140,2013-07-20 09:58:00
5:03 AM,55.4,55.4,100,29.86,7.0,SE,1.2,-,N/A,,Clear,140,2013-07-20 10:03:00
5:13 AM,55.4,55.4,100,29.86,9.0,SE,2.3,-,N/A,,Clear,130,2013-07-20 10:13:00
5:58 AM,56.5,56.5,100,29.88,8.0,Calm,Calm,-,N/A,,Clear,0,2013-07-20 10:58:00
6:58 AM,61.3,60.8,98,29.89,10.0,Calm,Calm,-,N/A,,Clear,0,2013-07-20 11:58:00
7:58 AM,70.2,63.9,80,29.91,10.0,WNW,6.9,-,N/A,,Clear,290,2013-07-20 12:58:00
8:58 AM,73.4,63.5,71,29.92,10.0,NW,8.1,-,N/A,,Clear,320,2013-07-20 13:58:00
9:58 AM,76.3,63.5,64,29.92,10.0,NW,3.5,-,N/A,,Clear,310,2013-07-20 14:58:00
10:58 AM,78.3,61.7,57,29.94,10.0,Calm,Calm,-,N/A,,Clear,0,2013-07-20 15:58:00
11:54 AM,78.8,62.6,57,29.93,10.0,Variable,3.5,-,N/A,,Light Drizzle,0,2013-07-20 16:54:00
11:58 AM,79.7,63.1,57,29.93,10.0,Variable,3.5,-,0.00,,Light Drizzle,0,2013-07-20 16:58:00
11:59 AM,78.8,62.6,57,29.93,10.0,NW,3.5,-,N/A,,Partly Cloudy,320,2013-07-20 16:59:00
12:58 PM,80.6,62.8,54,29.94,10.0,NNW,6.9,-,0.00,,Partly Cloudy,340,2013-07-20 17:58:00
1:58 PM,80.2,62.8,55,29.92,10.0,NNW,4.6,-,N/A,,Mostly Cloudy,340,2013-07-20 18:58:00
2:58 PM,80.4,63.3,56,29.92,10.0,NW,4.6,-,N/A,,Partly Cloudy,320,2013-07-20 19:58:00
3:58 PM,80.1,62.8,55,29.92,10.0,North,4.6,-,N/A,,Partly Cloudy,350,2013-07-20 20:58:00
4:58 PM,81.0,62.6,53,29.91,10.0,NNW,8.1,-,N/A,,Partly Cloudy,340,2013-07-20 21:58:00
5:58 PM,78.8,63.5,59,29.90,10.0,North,4.6,-,N/A,,Clear,350,2013-07-20 22:58:00
6:58 PM,77.5,62.2,59,29.90,10.0,NNE,4.6,-,N/A,,Clear,20,2013-07-20 23:58:00
7:58 PM,74.7,61.5,63,29.91,10.0,ENE,2.3,-,N/A,,Mostly Cloudy,60,2013-07-21 00:58:00
8:58 PM,72.0,61.7,70,29.93,10.0,Calm,Calm,-,N/A,,Scattered Clouds,0,2013-07-21 01:58:00
9:22 PM,69.8,62.6,78,29.93,9.0,Calm,Calm,-,N/A,Rain,Light Rain,0,2013-07-21 02:22:00
9:27 PM,69.8,62.6,78,29.94,9.0,Calm,Calm,-,N/A,Rain,Light Rain,0,2013-07-21 02:27:00
9:32 PM,69.8,62.6,78,29.94,9.0,ENE,2.3,-,N/A,Rain,Light Rain,70,2013-07-21 02:32:00
9:37 PM,71.6,62.6,73,29.94,10.0,East,4.6,-,N/A,,Mostly Cloudy,90,2013-07-21 02:37:00
9:58 PM,71.8,62.2,72,29.95,10.0,ESE,4.6,-,0.00,,Mostly Cloudy,120,2013-07-21 02:58:00
10:58 PM,71.4,61.7,71,29.96,10.0,East,10.4,-,N/A,,Scattered Clouds,100,2013-07-21 03:58:00
11:48 PM,68.0,60.8,78,29.97,10.0,East,6.9,-,N/A,,Mostly Cloudy,100,2013-07-21 04:48:00
11:58 PM,68.0,60.8,78,29.97,10.0,ESE,8.1,-,N/A,,Mostly Cloudy,110,2013-07-21 04:58:00